User: anonymous   Login
Location: Unspecified
(0.0000°N, 0.0000°E)
Time: 17:49:00
(UTC+00:00)
Language:

TerraSAR-X - Orbit

View from above orbital plane
View from above orbital plane
View from above satellite
View from above satellite

Ground track
Ground track

The orbit data is extracted from the following two-line orbital elements,

1 31698U 07026A   17294.04702656  .00000027  00000-0  44808-5 0  9993
2 31698  97.4468 299.9243 0001860 103.6857 286.7757 15.19146173573982
Epoch (UTC): 21 October 2017 01:07:43
Eccentricity: 0.0001860
inclination: 97.4468°
perigee height: 507 km
apogee height: 510 km
right ascension of ascending node: 299.9243°
argument of perigee: 103.6857°
revolutions per day: 15.19146173
mean anomaly at epoch: 286.7757°
orbit number at epoch: 57398

The dashed part of the orbit path shows where the satellite is in the earth's shadow,  

DLR